RH
92 84 92 81 91 84 89 86 99 80 84 76 75 70 73 94 84 85 90 97 82 60 42 31 28 30 40 56 61 62 62 67 69 69 71 72 71 69 68 66 63 56 43 36
100 90 97 100 84 88 90 100 100 100 93 79 87 95 98 96 95 97 96 95 83 63 42 35 32 33 41 55 64 66 67 70 74 74 75 78 77 76 77 78 77 72 64 54
96 91 98 98 82 67 88 99 100 100 94 100 100 100 100 96 93 92 91 95 83 60 45 41 35 37 42 55 70 74 75 77 80 81 80 84 86 88 90 88 88 86 77 70
99 98 97 68 76 84 97 100 100 100 100 100 100 95 93 93 95 99 99 98 80 60 53 47 41 41 48 60 65 87 84 86 87 88 89 86 86 91 93 95 93 90 81 71
99 91 88 97 85 97 100 99 100 100 100 100 91 82 87 90 92 95 96 93 75 63 55 47 43 47 51 60 56 86 93 93 92 97 89 86 82 85 94 94 91 88 84 77
98 99 93 82 88 100 100 100 100 100 100 89 86 84 95 98 98 99 99 90 71 65 63 56 55 57 58 62 54 67 94 94 99 100 97 92 91 95 95 98 94 91 86 89
96 100 100 100 100 100 100 100 100 100 100 98 94 93 97 100 100 99 98 93 69 64 65 66 62 62 64 64 54 53 89 99 100 100 100 100 100 96 98 99 98 100 100 100
100 100 99 98 100 100 100 100 100 100 98 97 95 95 98 99 99 98 88 78 72 66 70 74 75 69 70 66 55 50 68 96 99 100 100 100 99 100 100 99 98 98 97 92
97 100 100 100 100 100 100 100 100 100 96 93 94 99 100 96 95 86 76 72 69 66 68 79 79 78 74 66 56 50 48 64 93 100 100 100 100 100 98 99 98 95 95 90
97 97 100 100 100 100 100 100 100 99 98 97 97 100 99 98 92 84 80 74 71 67 67 74 81 82 77 69 60 53 48 46 54 95 100 100 100 100 100 99 92 93 99 96
99 100 100 100 100 100 100 100 99 99 97 96 94 97 95 96 93 86 81 78 74 71 69 72 77 81 80 74 66 57 51 47 44 58 93 99 100 100 98 100 100 100 100 100
99 100 100 100 100 100 100 99 100 94 97 100 99 94 95 94 93 85 81 80 76 77 74 74 78 80 80 78 72 65 58 50 45 43 57 95 95 91 100 100 100 100 100 100
98 100 100 98 96 95 91 94 95 96 99 93 100 98 97 89 91 88 87 83 79 78 77 74 75 77 78 74 72 68 64 57 50 45 43 58 90 95 85 87 100 100 100 99
99 95 93 98 94 97 94 92 92 96 97 94 92 95 93 89 88 88 87 85 81 81 81 77 78 77 75 72 71 69 65 63 59 50 43 44 52 87 100 98 94 95 99 98
96 97 91 86 88 90 90 88 85 88 90 91 94 90 89 87 87 90 93 91 85 84 82 79 79 80 78 75 73 68 64 60 56 54 50 46 47 50 98 100 100 99 98 99
82 87 89 88 88 90 90 90 88 86 89 89 90 92 92 92 89 89 90 89 84 83 82 77 77 76 73 73 70 69 66 65 61 55 53 47 44 44 65 98 100 100 99 98
68 67 75 77 79 77 78 82 83 80 79 82 82 80 81 82 81 82 83 83 81 80 79 74 71 73 69 68 65 66 63 62 60 60 57 54 46 44 46 75 99 100 100 100
76 73 77 78 76 73 72 79 81 80 79 81 80 79 81 81 78 74 74 71 71 71 74 71 68 66 65 63 61 61 60 57 57 57 57 58 53 46 47 50 71 100 100 100
83 81 81 81 85 84 81 81 83 81 83 86 82 81 83 84 84 81 78 73 74 68 67 71 66 62 60 57 56 55 53 53 53 55 57 59 61 53 48 49 53 76 100 100
73 80 81 82 84 86 82 82 82 79 82 84 84 84 85 87 88 86 82 75 80 75 67 69 69 67 64 58 53 52 51 50 47 47 52 56 59 59 51 52 56 63 79 100
65 66 68 70 68 68 72 72 70 70 68 71 74 76 78 79 88 90 85 78 87 82 76 74 68 68 72 64 62 56 56 52 45 43 44 49 57 61 59 53 55 57 67 84
68 62 60 62 63 59 65 67 70 67 65 65 66 66 66 67 74 79 85 85 83 85 84 84 79 76 86 72 66 56 61 56 50 44 42 43 48 58 61 58 58 59 62 76
100 100 98 91 73 56 53 58 60 62 61 62 60 60 60 58 58 55 54 71 80 83 87 86 86 87 100 85 70 66 67 59 55 47 43 42 41 48 60 62 60 71 74 77
100 100 100 100 100 100 92 72 57 57 60 62 64 65 62 58 54 57 53 52 54 63 80 86 89 93 100 88 76 79 72 66 60 52 46 41 41 41 49 61 61 67 87 93
100 100 100 100 100 100 98 100 98 94 71 58 59 63 68 68 61 60 59 56 54 53 55 71 84 91 91 90 84 79 75 70 64 57 53 44 39 39 41 51 60 61 77 100
100 99 100 100 100 100 100 100 100 100 100 100 90 71 58 60 62 62 60 58 56 57 55 54 64 83 86 88 88 85 78 72 66 60 56 54 44 40 39 41 52 59 67 88
100 100 100 99 100 100 100 99 94 92 99 99 92 100 97 69 62 62 60 58 59 59 59 58 55 58 72 84 85 88 83 77 72 65 60 57 53 45 45 42 42 53 57 76
Wind_Speed
45 43 41 41 40 38 38 44 33 39 37 36 36 36 37 35 33 31 29 28 28 26 27 29 32 34 34 34 36 36 36 35 34 34 35 36 37 39 40 40 39 41 43 45
42 43 49 49 43 42 44 45 48 41 40 38 40 40 35 32 29 28 28 28 26 25 26 29 32 34 34 34 35 35 35 35 34 33 33 33 34 34 36 37 37 37 38 42
32 30 26 24 28 32 39 39 39 38 37 33 34 29 27 26 28 29 28 28 25 24 25 28 31 33 33 34 35 35 36 35 35 34 33 32 32 32 32 34 35 36 36 38
33 27 16 24 25 24 26 26 27 29 28 27 25 24 24 26 26 26 25 24 24 24 24 27 29 31 31 33 34 35 35 35 35 35 34 32 32 31 31 32 33 35 37 37
15 20 22 19 17 17 15 17 19 19 20 18 19 19 19 20 21 22 23 23 24 24 25 27 30 31 31 32 33 33 33 33 33 33 33 33 32 31 31 31 31 33 36 38
22 13 12 20 17 16 15 13 15 14 13 13 13 16 15 17 20 21 22 23 24 24 25 27 29 30 30 32 32 32 31 31 31 31 32 33 34 34 31 30 31 32 34 37
22 13 8 12 12 11 6 6 9 10 11 13 17 19 18 18 18 21 22 22 23 23 25 28 29 30 29 30 31 31 32 30 29 29 30 31 32 31 32 31 30 31 33 35
5 5 5 10 7 8 9 11 12 14 17 18 19 19 19 19 20 20 20 21 22 23 24 26 28 29 29 29 29 28 30 32 29 28 28 28 28 30 31 29 30 31 32 33
6 6 10 9 7 8 11 13 15 17 17 18 18 18 19 20 20 20 22 23 23 24 24 25 27 29 28 28 28 28 27 29 32 29 28 26 27 28 27 29 30 32 35 38
11 12 12 12 13 14 15 16 17 17 18 19 19 20 21 21 22 23 22 23 23 24 24 25 25 26 27 27 27 27 27 27 28 32 29 27 25 26 26 27 30 32 35 39
15 17 15 15 17 16 17 19 19 20 22 22 23 22 23 22 23 23 23 23 23 24 25 25 26 25 25 26 27 26 26 27 27 28 32 30 27 29 27 25 26 30 32 35
13 16 18 16 18 19 18 20 21 23 21 21 25 27 25 24 24 24 24 24 23 23 25 25 25 25 25 25 26 26 26 26 27 27 29 33 32 26 23 26 23 22 24 27
16 17 20 21 19 21 21 19 21 22 24 25 22 25 26 26 24 24 25 25 24 24 25 25 25 25 25 24 24 25 26 27 27 27 27 30 33 35 34 23 24 24 23 24
19 20 18 20 23 21 24 24 22 21 23 25 26 24 25 25 25 25 25 25 24 23 24 25 24 25 24 24 23 25 25 25 26 26 27 28 30 34 34 35 35 31 27 27
18 20 24 24 22 22 24 25 25 23 23 23 24 26 26 26 25 25 25 25 24 23 23 23 22 23 23 23 22 23 23 24 24 24 25 27 27 28 32 32 33 33 32 27
17 19 21 24 25 24 25 25 27 26 25 24 25 25 26 26 27 25 24 25 24 22 22 22 20 21 21 21 21 20 20 21 23 22 23 24 24 25 27 31 32 33 34 36
24 22 21 22 24 24 25 25 27 27 27 26 26 26 26 26 26 25 25 25 24 24 24 25 21 21 21 21 20 19 19 20 21 21 21 22 23 24 25 27 29 30 31 32
27 26 26 27 27 27 26 26 26 27 27 27 27 27 26 26 26 26 25 24 23 22 23 25 24 22 22 21 21 20 19 19 20 21 20 20 21 22 22 23 25 27 27 28
26 27 27 27 27 28 28 27 27 27 26 27 28 27 27 26 26 26 26 24 23 24 19 22 23 21 22 21 21 20 19 19 18 19 19 18 18 19 19 20 21 23 24 25
26 27 29 29 28 30 31 30 31 31 29 29 29 28 27 26 26 27 27 25 23 26 22 21 21 20 21 20 20 20 18 18 18 17 18 17 17 16 17 17 18 19 20 21
28 28 29 30 30 29 30 31 32 31 30 30 30 30 30 27 26 27 26 25 20 24 23 22 22 19 20 20 18 19 17 17 17 16 15 14 14 14 14 15 15 16 17 17
27 28 28 29 29 29 27 28 29 31 30 29 29 29 30 29 28 28 27 27 23 22 21 21 20 19 19 20 20 17 15 15 16 15 14 13 12 12 12 12 12 12 14 16
28 29 28 28 29 28 26 26 27 28 28 28 28 28 28 28 28 28 26 23 26 23 22 21 20 18 15 20 20 16 15 14 14 14 14 12 11 10 9 9 9 10 10 11
30 30 30 29 29 29 29 25 26 26 27 27 27 27 28 28 26 25 25 23 23 23 23 22 21 19 17 23 19 17 17 15 14 14 14 13 11 10 8 7 6 6 7 8
30 30 30 30 29 28 28 27 25 24 24 24 23 23 24 26 28 25 23 22 22 22 23 23 23 22 22 22 20 19 18 18 16 15 14 14 12 10 9 7 5 4 3 3
31 31 31 30 30 31 30 29 28 26 27 25 23 22 22 22 23 25 24 23 21 20 21 22 24 25 24 21 21 20 20 19 18 17 16 15 14 11 9 8 7 5 4 2
31 31 31 31 30 31 30 30 30 29 27 28 27 24 25 23 22 22 21 21 21 21 21 20 22 24 25 23 21 20 19 19 18 18 17 16 15 14 11 9 9 8 7 6
Wind_Direction
270 273 271 269 266 270 258 265 248 267 272 285 282 275 281 289 291 288 285 288 293 296 300 306 311 314 314 315 314 312 310 308 306 300 298 297 294 290 288 285 281 277 271 266
272 279 271 264 268 268 274 269 263 265 270 271 274 277 279 286 287 286 286 292 296 297 302 308 312 315 316 317 317 317 316 315 312 308 305 302 297 294 291 288 284 280 276 273
267 280 278 274 276 274 267 265 262 260 270 274 277 275 279 284 286 288 291 293 293 297 305 310 312 315 318 318 321 321 320 319 317 314 310 307 305 301 295 291 286 284 280 276
276 277 276 280 271 265 261 258 256 263 266 266 270 280 288 289 287 290 292 292 295 302 306 308 312 317 318 319 321 322 321 320 319 315 314 315 312 308 301 295 289 288 288 285
268 270 272 275 276 260 252 255 257 255 259 270 279 290 290 290 291 293 295 297 301 305 309 312 313 315 318 319 321 323 323 322 321 318 319 320 317 314 308 300 294 291 293 293
271 276 274 275 261 252 251 251 261 261 265 273 291 287 295 297 297 299 298 298 302 307 310 312 311 314 317 318 321 323 326 326 324 324 322 322 321 316 313 309 304 301 298 300
269 273 266 274 260 246 227 252 268 267 280 289 286 292 295 291 291 293 296 301 304 308 312 311 312 313 316 317 320 323 327 330 331 330 327 324 317 320 321 313 311 310 305 304
275 252 251 289 260 237 249 270 280 283 286 289 296 296 297 301 300 299 300 302 305 309 311 310 312 313 315 316 318 323 325 330 337 335 335 325 328 327 320 317 317 318 314 313
263 259 271 283 275 263 268 275 281 285 290 294 290 294 299 297 298 300 303 306 308 311 312 312 314 314 314 315 318 323 325 329 333 340 340 338 338 331 328 326 323 327 327 325
274 273 267 274 278 280 281 282 283 287 288 291 295 295 294 296 298 300 302 304 307 309 310 311 310 311 313 315 319 323 326 329 332 337 345 345 347 343 342 336 332 336 332 330
275 274 278 275 277 281 286 290 293 295 298 298 295 294 295 297 297 298 301 304 307 308 309 309 309 311 313 315 316 321 326 330 333 336 341 350 352 354 353 352 346 340 338 336
269 277 279 280 284 289 291 291 292 292 290 290 294 297 297 298 299 300 301 303 304 305 306 307 309 310 311 313 315 320 326 330 334 338 342 345 352 359 2 356 348 338 340 339
279 281 289 295 295 293 292 289 292 296 297 297 294 293 295 296 298 298 300 302 304 306 305 306 308 309 310 312 315 320 324 328 333 336 340 346 349 354 354 5 4 358 352 351
298 299 296 296 299 299 299 301 300 299 298 298 297 296 295 296 297 298 300 301 302 304 303 305 307 307 311 313 316 318 320 325 328 333 341 345 350 350 354 357 0 6 9 8
300 303 306 307 305 302 301 303 302 302 298 296 296 297 297 298 298 299 299 299 300 302 302 303 307 307 310 310 314 315 318 321 327 333 338 343 346 350 351 358 1 6 10 15
304 301 300 301 304 305 304 303 302 303 301 300 298 296 296 296 297 298 298 299 300 299 298 299 304 305 307 310 312 316 318 322 324 329 334 338 343 348 355 357 2 8 12 15
311 307 301 299 299 299 299 300 300 301 300 300 298 296 296 295 295 296 297 296 298 299 300 300 303 303 305 309 313 317 321 323 325 330 331 335 343 347 357 357 0 7 12 17
312 312 311 310 309 306 305 303 302 300 300 299 297 296 296 295 295 294 294 293 293 293 295 295 298 301 301 305 310 315 317 322 327 328 333 335 340 349 352 358 1 5 10 16
311 310 308 308 308 307 307 307 304 303 303 300 297 296 295 295 294 294 294 294 295 292 289 290 293 296 297 300 303 306 312 316 320 324 328 333 337 342 348 356 4 6 8 14
312 308 307 307 305 304 304 304 303 303 302 300 299 299 298 297 295 294 292 293 295 291 292 289 289 291 291 293 296 299 307 308 312 318 323 330 335 340 347 354 2 6 12 15
314 312 311 308 307 306 305 304 303 302 301 299 297 296 295 294 294 294 294 293 291 287 289 289 287 287 288 289 291 294 300 298 302 309 314 321 329 336 342 349 359 7 13 20
323 320 318 315 312 311 309 306 303 301 302 301 298 296 295 294 291 288 288 292 291 289 288 285 284 284 285 283 287 289 293 293 296 302 307 313 321 329 335 343 353 5 13 19
328 326 327 325 322 320 318 313 308 308 308 306 304 303 300 297 295 293 289 282 282 283 283 282 280 281 281 280 280 285 283 285 290 296 299 303 307 315 324 333 345 359 14 19
328 327 325 325 325 326 325 324 317 315 311 310 310 308 305 303 301 301 297 293 285 277 272 273 275 272 270 272 279 281 280 281 283 287 291 294 298 301 305 313 327 344 7 22
332 330 328 324 322 319 319 321 323 321 315 314 312 310 307 305 305 304 298 294 290 283 275 267 266 266 266 271 272 273 274 274 274 276 280 284 287 288 287 286 291 303 327 20
340 337 334 332 328 326 324 322 320 320 318 320 321 316 312 311 309 308 308 305 299 289 282 273 263 260 262 265 265 266 267 268 268 268 268 270 274 275 273 269 263 259 251 235
343 340 336 334 332 330 329 327 324 323 320 317 319 321 319 312 306 305 304 301 298 294 289 283 273 264 260 258 258 259 259 260 261 261 261 261 260 262 261 257 252 245 235 221